Location: Bukit Setapoh
(2.2500°N, 113.8000°E)
Time: 23:52:50
(UTC+00:00)

Cosmos 405 Rocket - Pass Details

Date: 25 July 2021
Orbit: 488 x 553 km, 81.3° (Epoch: 18 September)

Event Time Altitude Azimuth Distance (km) Brightness Sun altitude
Rises 11:16:19 0° 170° (S) 2,582 6.0 -9.8°
Reaches altitude 10° 11:18:32 10° 161° (SSE) 1,707 5.0 -10.3°
Maximum altitude 11:21:58 34° 94° (E) 854 3.3 -11.1°
Drops below altitude 10° 11:25:25 10° 29° (NNE) 1,734 5.3 -11.9°
Sets 11:27:42 0° 20° (NNE) 2,631 6.3 -12.5°
